Regional Weather Roundup
Issued by NWS

Home | Current Version | Previous Version | Graphics & Text | Print | Product List | Glossary On
Versions: 1 2 3 4 5 6 7 8 9 10 11 12 13 14 15 16 17 18 19 20 21 22 23 24 25 26 27 28 29 30 31 32 33 34 35 36 37 38 39 40 41 42 43 44 45 46 47 48 49 50
000
ASUS43 KFSD 160910
RWRSD

WEATHER ROUNDUP FOR SOUTH DAKOTA
NATIONAL WEATHER SERVICE SIOUX FALLS SD
400 AM CDT TUE SEP 16 2014

NOTE: "FAIR" INDICATES FEW OR NO CLOUDS BELOW 12,000 FEET WITH NO
SIGNIFICANT WEATHER AND/OR OBSTRUCTIONS TO VISIBILITY.


SDZ001>005-009-010-012>017-161000-
NORTHWEST AND NORTH CENTRAL SOUTH DAKOTA

CITY           SKY/WX    TMP DP  RH WIND       PRES   REMARKS
BUFFALO          N/A     49  41  74 SE3       29.99F
FAITH            N/A     44  38  79 S16       30.04F
MOBRIDGE       CLEAR     49  42  77 SE12      30.07F
$$

SDZ012>016-024>037-041>051-057-063-072>074-161000-
SOUTHWEST AND SOUTH CENTRAL SOUTH DAKOTA

CITY           SKY/WX    TMP DP  RH WIND       PRES   REMARKS
RAPID CTY ARPT CLEAR     46  41  82 CALM      30.05F
PIERRE         CLEAR     48  39  71 SE12      30.09F
CUSTER         CLEAR     45  38  76 NW6       30.15F
ELLSWORTH AFB  CLEAR     45  42  86 W5        30.05F
PHILIP         CLEAR     43  39  86 CALM      30.06F
PINE RIDGE     CLEAR     53  47  79 W6        30.09F
WINNER         FAIR      52  40  63 S20G26    30.12F
$$

SDZ004>011-016>023-039-040-161000-
NORTHEAST SOUTH DAKOTA

CITY           SKY/WX    TMP DP  RH WIND       PRES   REMARKS
ABERDEEN       CLEAR     33  32  96 S5        30.16F WCI  29
WATERTOWN      CLEAR     39  36  89 S7        30.18F
SISSETON         N/A     49  39  68 SW8       30.14F
$$

SDZ017-020-022-023-036>040-048>070-161000-
SOUTHEAST SOUTH DAKOTA

CITY           SKY/WX    TMP DP  RH WIND       PRES   REMARKS
SIOUX FALLS    CLEAR     41  40  96 CALM      30.21F FOG
HURON          CLEAR     41  36  82 S5        30.17F
CHAMBERLAIN    CLEAR     44  40  83 SE6       30.15F
MITCHELL       CLEAR     42  39  89 S7        30.20F
YANKTON        CLEAR     43  39  87 CALM      30.23F
$$

ABBREVIATIONS USED IN REMARKS
   TC - TEMPERATURE IN CELSIUS
  WCI - WIND CHILL INDEX
   HX - HEAT INDEX
  VSB - VISIBILITY



USA.gov is the U.S. government's official web portal to all federal, state and local government web resources and services.